User: anonymous   Login
Location: Unspecified
(0.0000°N, 0.0000°E)
Time: 21:29:32
(UTC+00:00)
Language:

STARS - Orbit

View from above orbital plane
View from above orbital plane
View from above satellite
View from above satellite

Ground track
Ground track

The orbit data is extracted from the following two-line orbital elements,

1 33498U 09002G   18343.76311227 +.00000210 +00000-0 +36097-4 0  9998
2 33498 098.3205 181.5397 0012098 062.9367 297.3076 14.78901545531369
Epoch (UTC): 09 December 2018 18:18:52
Eccentricity: 0.0012098
inclination: 98.3205°
perigee height: 624 km
apogee height: 641 km
right ascension of ascending node: 181.5397°
argument of perigee: 62.9367°
revolutions per day: 14.78901545
mean anomaly at epoch: 297.3076°
orbit number at epoch: 53136

The dashed part of the orbit path shows where the satellite is in the earth's shadow,  

DLR